Regional Weather Roundup
Issued by NWS

Home | Current Version | Previous Version | Graphics & Text | Print | Product List | Glossary Off
Versions: 1 2 3 4 5 6 7 8 9 10 11 12 13 14 15 16 17 18 19 20 21 22 23 24 25 26 27 28 29 30 31 32 33 34 35 36 37 38 39 40 41 42 43 44 45 46 47 48 49 50

000
ASUS43 KMKX 011859
RWRWI

WISCONSIN REGIONAL WEATHER ROUNDUP
NATIONAL WEATHER SERVICE MILWAUKEE/SULLIVAN WI
100 PM CST SUN FEB 01 2015

NOTE: "FAIR" INDICATES FEW OR NO CLOUDS BELOW 12,000 FEET WITH NO
SIGNIFICANT WEATHER AND/OR OBSTRUCTIONS TO VISIBILITY.

WIZ001-002-006>008-014>016-023>028-012000-
NORTHWEST WISCONSIN

CITY           SKY/WX    TMP DP  RH WIND       PRES   REMARKS
SUPERIOR ARPT  MOSUNNY   11  -6  47 NE13      30.37F WCI  -4
ASHLAND        CLOUDY    10   3  73 N18       30.32F WCI  -8
HAYWARD        LGT SNOW  11   2  67 N17       30.24F WCI  -6
SIREN          PTSUNNY   14   2  60 NE17      30.27F WCI  -3
CUMBERLAND     CLOUDY    14   1  57 NE18      30.21F WCI  -3
RICE LAKE      CLOUDY    15   2  58 N16       30.23S WCI  -1
CHETEK         CLOUDY    14   1  56 NE9       30.21F WCI   2
LADYSMITH      CLOUDY    13   1  61 N14G21    30.22F WCI  -3
EAU CLAIRE     CLOUDY    14   0  53 NE15G24   30.17F WCI  -1
MENOMONIE      CLOUDY    15   0  52 NE17G24   30.20F WCI  -2
NEW RICHMOND   CLOUDY    15   4  60 NE16G22   30.23S WCI  -1
OSCEOLA        CLOUDY    15   4  61 N13       30.28F WCI   1
$$

WIZ003>005-009-010-017-018-012000-
NORTH CENTRAL WISCONSIN

CITY           SKY/WX    TMP DP  RH WIND       PRES   REMARKS
MANITOWISH WTR CLOUDY     8  -2  63 NE16      30.19F WCI  -9
ARBOR VITAE    CLOUDY    11   1  63 NE13      30.18F WCI  -4
WOODRUFF       CLOUDY    11   1  63 NE13      30.18F WCI  -4
RHINELANDER    CLOUDY     9  -1  64 NE10G20   30.15F WCI  -5
EAGLE RIVER    CLOUDY     9  -2  60 NE14      30.17F WCI  -7
LAND O LAKES   CLOUDY    10   0  66 N10       30.19F WCI  -4
PHILLIPS       PTSUNNY    9   0  66 NE16      30.18F WCI  -9
TOMAHAWK       CLOUDY    11   0  60 NE12      30.16F WCI  -4
MEDFORD        CLOUDY    11   0  62 NE16      30.13F WCI  -6
MERRILL        CLOUDY    12   1  61 NE15      30.14F WCI  -4
$$

WIZ029-030-035-036-043>047-012000-
CENTRAL WISCONSIN

CITY           SKY/WX    TMP DP  RH WIND       PRES   REMARKS
WAUSAU         CLOUDY    12   1  61 NE16G23   30.12F WCI  -5
MOSINEE        MOSUNNY   12   3  67 NE15G22   30.13F WCI  -4
MARSHFIELD     CLOUDY    13   2  61 NE17G23   30.11F WCI  -4
STEVENS POINT  CLOUDY    10   2  67 NE16      30.13F WCI  -7
WAUPACA        CLOUDY    14   5  67 N15G23    30.15R HAZE    WCI  -2
WAUTOMA        LGT SNOW  12   5  73 NE20G29   30.11R WCI  -6
WISC RAPIDS    CLOUDY    13   0  56 NE15G22   30.12F WCI  -3
CAMP DOUGLAS   NOT AVBL
$$

WIZ011>013-019>022-031-037>040-048>050-012000-
NORTHEAST WISCONSIN

CITY           SKY/WX    TMP DP  RH WIND       PRES   REMARKS
ANTIGO         CLOUDY    10   3  72 NE16      30.12F WCI  -7
SHAWANO        CLOUDY    13   1  58 NE15G24   30.19F WCI  -3
OCONTO         CLOUDY     9   0  65 NE12G20   30.21F WCI  -5
STURGEON BAY   CLOUDY     9   1  72 N20G25    30.19F WCI -11
GREEN BAY      MIX PCPN  10   3  73 NE29G38   30.15F WCI -12
MANITOWOC      LGT SNOW  18  16  93 NE18G30   30.09F VSB 3/4 WCI   2
APPLETON       NOT AVBL
CLINTONVILLE   CLOUDY    12   0  57 NE17G23   30.16F WCI  -5
OSHKOSH        SNOW      11   6  81 N24G35    30.07F VSB 1/2 WCI  -9
$$

WIZ032>034-041-042-053>061-012000-
SOUTHWEST WISCONSIN

CITY           SKY/WX    TMP DP  RH WIND       PRES   REMARKS
LA CROSSE      LGT SNOW  16   9  74 N12       30.10F WCI   3
SPARTA         LGT SNOW  15  10  78 NE15G21   30.11F WCI   0
VIROQUA        CLOUDY    14   9  81 NE25G31   30.00F WCI  -5
BOSCOBEL       SNOW      17  11  77 NE10G22   30.01F VSB 1/2 WCI   5
PRAIRIE DU CHI MIX PCPN  18  11  75 NE14G24   30.00F WCI   4
PLATTEVILLE    CLOUDY    18  15  88 N24G30    29.90F VSB 1   WCI   0
$$

WIZ056-057-062-063-064-067-068-012000-
SOUTH CENTRAL WISCONSIN

CITY           SKY/WX    TMP DP  RH WIND       PRES   REMARKS
REEDSBURG      LGT SNOW  14   9  81 NE20G25   30.04F WCI  -3
BARABOO/DELLS  LGT SNOW  14   9  82 NE17G25   30.02F VSB 1   WCI  -3
LONE ROCK      LGT SNOW  16  10  77 NE16G31   30.01F VSB 3/4 WCI   1
MINERAL POINT  LGT SNOW  19  14  79 NE21G35   29.91F WCI   3
MADISON        LGT SNOW  14   9  80 NE22G37   29.97F VSB 3/4 WCI  -4
MIDDLETON      CLOUDY    17  12  80 NE23G30   29.98S WCI   0
WATERTOWN      LGT SNOW  20  16  84 NE17G26   29.95F WCI   5
MONROE         LGT SNOW  21  18  86 N23G32    29.87S WCI   5
JANESVILLE     LGT SNOW  25  19  80 NE22G28   29.87F VSB 1   WCI  10
$$

WIZ051-052-058>065-066-070>072-012000-
SOUTHEAST WISCONSIN

CITY           SKY/WX    TMP DP  RH WIND       PRES   REMARKS
MILWAUKEE      SNOW      22  18  85 NE25G35   29.93F VSB 1/4 WCI   5
WAUKESHA       LGT SNOW  21  18  86 NE12G35   29.93  VSB 1   WCI   9
MILWAUKEE/TIMM LGT SNOW  23  18  80 NE21G30   29.95F VSB 1   WCI   8
RACINE         SNOW      23  19  85 NE28G35   29.92F VSB 1/2 WCI   6
BURLINGTON     LGT SNOW  22  18  86 NE22G33   29.89F WCI   6
KENOSHA        SNOW      22  20  92 NE29G37   29.87F VSB 1/4 WCI   4
FOND DU LAC    HAZE      11   5  77 N28G37    30.06F VSB 1/2 WCI -10
SHEBOYGAN      LGT SNOW  19  15  84 NE24G30   30.03F VSB 3/4 WCI   2
WEST BEND      LGT SNOW  21  16  79 NE22G28   29.98F WCI   5
JUNEAU         LGT SNOW  14  10  84 N18G25    30.00F VSB 3/4 WCI  -3
$$

LSZ147-162-012000-
LAKE SUPERIOR

STATION/POSITION TIME  TEMP    WIND        PRES    WAVE
                       AIR SEA DIR/SP/G            HT/PER
                 (UTC) (F)     (DEG/KT/KT) (MB)    (FT/S)
DEVILS ISLAND    1800    8      40/ 16/ 19 1030.7F
PORT WING        1840   12      50/ 16/ 23 1028.1F
SAXON HARBOR     1820   15      30/ 19     1026.1F
$$

LMZ867-665-643>646-012000-
LAKE MICHIGAN

STATION/POSITION TIME  TEMP    WIND        PRES    WAVE
                       AIR SEA DIR/SP/G            HT/PER
                 (UTC) (F)     (DEG/KT/KT) (MB)    (FT/S)
NORTHPORT PIER   1800    9      30/ 18/ 24 1024.7F
SISTER BAY       1813    9      30/ 18/ 27   N/A
KEWAUNEE LAKESHO 1800   18      50/ 23/ 29 1020.1F
SHEBOYGAN LAKESH 1800   20      50/ 30/ 33 1019.0F
PORT WASHINGTON  1820   23      40/ 26     1017.3F
MILWAUKEE LAKESH 1800   24      50/ 28/ 33   N/A
KENOSHA   LAKESH 1800   24      50/ 31/ 34 1013.2F
$$

TC  - TEMPERATURE IN CELSIUS
VSB - VISIBILITY IN STATUTE MILES
WCI - WIND CHILL INDEX
HX  - HEAT INDEX




USA.gov is the U.S. government's official web portal to all federal, state and local government web resources and services.